Weather History for KBLV - April, 2013

Change the Weather History Date:

Sunday, April 21, 2013

  Actual Average Record
Temperature  
Mean Temperature 50 °F -  
Max Temperature 61 °F 69 °F 87 °F (1965)
Min Temperature 40 °F 47 °F 28 °F (1982)
Degree Days  
Heating Degree Days 14    
Moisture  
Dew Point 37 °F    
Average Humidity 60    
Maximum Humidity 74    
Minimum Humidity 46    
Precipitation  
Precipitation 0.00 in - - ()
Sea Level Pressure  
Sea Level Pressure 30.36 in    
Wind  
Wind Speed 7 mph (ESE)    
Max Wind Speed 13 mph    
Max Gust Speed -    
Visibility 10 miles    
Events      
Averages and records for this station are not official NWS values.
T = Trace of Precipitation, MM = Missing Value Source: NWS Daily Summary

Daily Weather History Graph

Daily Weather History Graph

Search for Another Location

Airport or City:

Trip Planner

Search our weather history database for the weather conditions in past years. The results will help you decide how hot, cold, wet, or windy it might be!

Date:

Astronomy

Apr. 21, 2013 Rise Set
Actual Time 6:14 AM CDT 7:41 PM CDT
Civil Twilight 5:46 AM CDT 8:09 PM CDT
Nautical Twilight 5:13 AM CDT 8:43 PM CDT
Astronomical Twilight 4:38 AM CDT 9:18 PM CDT
Moon 3:30 PM CDT (4/21) 3:33 AM CDT (4/21)
Length of Visible Light 14h 23m
Length of Day
13h 27m
Waxing Gibbous, 80% of the Moon is Illuminated
Apr 21
Waxing Gibbous
Apr 25
Full
May 2
Last Quarter
May 9
New
May 17
First Quarter

Hourly Weather History & Observations

Time (CDT) Temp. Windchill Dew Point Humidity Pressure Visibility Wind Dir Wind Speed Gust Speed Precip Events Conditions
12:55 AM 44.2 °F 41.0 °F 34.9 °F 70% 30.37 in 10.0 mi East 5.8 mph - N/A   Clear
1:55 AM 43.9 °F 38.8 °F 34.2 °F 69% 30.36 in 10.0 mi East 9.2 mph - N/A   Clear
2:55 AM 43.2 °F 39.7 °F 33.8 °F 70% 30.37 in 10.0 mi ESE 5.8 mph - N/A   Partly Cloudy
3:55 AM 42.3 °F 40.5 °F 32.9 °F 69% 30.37 in 10.0 mi East 3.5 mph - N/A   Mostly Cloudy
4:55 AM 41.2 °F 36.6 °F 32.7 °F 72% 30.39 in 10.0 mi East 6.9 mph - N/A   Clear
5:55 AM 40.5 °F 35.8 °F 32.9 °F 74% 30.40 in 10.0 mi East 6.9 mph - N/A   Clear
6:55 AM 40.3 °F 37.1 °F 32.7 °F 74% 30.43 in 10.0 mi East 4.6 mph - N/A   Partly Cloudy
7:55 AM 43.2 °F 37.9 °F 32.4 °F 66% 30.44 in 10.0 mi East 9.2 mph - N/A   Overcast
8:55 AM 45.5 °F 39.6 °F 33.3 °F 62% 30.45 in 10.0 mi SE 12.7 mph - N/A   Clear
9:55 AM 48.7 °F - 35.1 °F 59% 30.44 in 10.0 mi ESE 8.1 mph - N/A   Scattered Clouds
10:55 AM 52.0 °F - 37.4 °F 58% 30.43 in 10.0 mi ESE 10.4 mph - N/A   Overcast
11:55 AM 54.7 °F - 39.2 °F 56% 30.41 in 10.0 mi SE 5.8 mph - N/A   Mostly Cloudy
12:55 PM 57.0 °F - 39.7 °F 52% 30.39 in 10.0 mi South 5.8 mph - N/A   Mostly Cloudy
1:55 PM 59.4 °F - 39.9 °F 49% 30.36 in 10.0 mi ESE 4.6 mph - N/A   Scattered Clouds
2:55 PM 60.3 °F - 41.4 °F 50% 30.34 in 10.0 mi East 9.2 mph - N/A   Clear
3:55 PM 61.5 °F - 41.0 °F 47% 30.31 in 10.0 mi ESE 9.2 mph - N/A   Clear
4:55 PM 61.5 °F - 40.3 °F 46% 30.29 in 10.0 mi ESE 9.2 mph - N/A   Clear
5:55 PM 61.2 °F - 40.5 °F 47% 30.28 in 10.0 mi ESE 11.5 mph - N/A   Partly Cloudy
6:55 PM 59.4 °F - 40.3 °F 49% 30.28 in 10.0 mi ESE 8.1 mph - N/A   Scattered Clouds
7:55 PM 56.7 °F - 39.4 °F 52% 30.28 in 10.0 mi ESE 9.2 mph - N/A   Mostly Cloudy
8:55 PM 55.2 °F - 38.7 °F 54% 30.29 in 10.0 mi ESE 6.9 mph - N/A   Mostly Cloudy
9:55 PM 52.3 °F - 39.9 °F 63% 30.30 in 10.0 mi ESE 3.5 mph - N/A   Overcast
10:55 PM 51.4 °F - 40.1 °F 65% 30.30 in 10.0 mi ESE 3.5 mph - N/A   Overcast
11:55 PM 48.9 °F - 38.8 °F 68% 30.30 in 10.0 mi ESE 4.6 mph - N/A   Mostly Cloudy